DW1520 Weather Reports


time (UTC)temp
C
wind
direction
speed
KPH
gust
KPH
rain 1hr
cm
rain 24hr
cm
rain mn
cm
humidity
%
barometer
mb
20260831003006 25 158 6.4 16.1 0.00 0.00 0.00 76 1006.3
20260831002506 25 166 4.8 11.3 0.00 0.00 0.00 76 1006.5
20260831002006 25 166 6.4 11.3 0.00 0.00 0.00 76 1006.6
20260831001006 25 156 6.4 14.5 0.00 0.00 0.00 75 1006.5
20260831000506 25 180 4.8 9.7 0.00 0.00 0.00 75 1006.6
20260830235006 25 173 6.4 12.9 0.00 0.00 0.00 74 1006.4
20260830234006 25 172 8.0 16.1 0.00 0.00 0.00 73 1006.5
20260830233506 26 153 8.0 14.5 0.00 0.00 0.00 73 1006.5
20260830233006 26 173 8.0 12.9 0.00 0.00 0.00 72 1006.5
20260830232506 26 171 8.0 16.1 0.00 0.00 0.00 71 1006.5
20260830230506 26 166 8.0 12.9 0.00 0.00 0.00 69 1006.4
20260830225506 26 173 6.4 19.3 0.00 0.00 0.00 68 1006.2
20260830225006 27 168 6.4 14.5 0.00 0.00 0.00 68 1006.0
20260830224006 27 159 3.2 12.9 0.00 0.00 0.00 70 1006.0
20260830223506 27 172 4.8 11.3 0.00 0.00 0.00 70 1006.0
20260830223007 27 172 4.8 11.3 0.00 0.00 0.00 69 1006.0
20260830222506 27 177 9.7 12.9 0.00 0.00 0.00 69 1005.9
20260830222006 27 166 3.2 8.0 0.00 0.00 0.00 72 1005.9
20260830221506 27 175 4.8 14.5 0.00 0.00 0.00 70 1006.0
20260830221006 27 166 4.8 12.9 0.00 0.00 0.00 71 1005.8
20260830220506 27 166 6.4 11.3 0.00 0.00 0.00 70 1005.8
20260830220006 27 157 4.8 11.3 0.00 0.00 0.00 70 1005.8
20260830215506 27 184 4.8 9.7 0.00 0.00 0.00 70 1005.8
20260830215007 27 172 4.8 9.7 0.00 0.00 0.00 69 1005.9
20260830214006 27 171 8.0 14.5 0.00 0.00 0.00 67 1005.8
20260830213006 27 172 8.0 11.3 0.00 0.00 0.00 69 1005.7
20260830212506 27 175 6.4 9.7 0.00 0.00 0.00 67 1005.7
20260830212006 27 171 6.4 12.9 0.00 0.00 0.00 67 1005.7
20260830211006 28 177 4.8 14.5 0.00 0.00 0.00 68 1005.6
20260830210506 28 169 8.0 19.3 0.00 0.00 0.00 66 1005.5
20260830210006 28 148 8.0 14.5 0.00 0.00 0.00 65 1005.6
20260830205506 28 159 3.2 11.3 0.00 0.00 0.00 68 1005.7
20260830204506 28 156 4.8 12.9 0.00 0.00 0.00 67 1005.8
20260830203006 28 163 3.2 8.0 0.00 0.00 0.00 68 1005.3
20260830202505 28 173 8.0 11.3 0.00 0.00 0.00 67 1005.5
20260830202006 28 169 3.2 11.3 0.00 0.00 0.00 69 1005.6
20260830201006 28 172 4.8 11.3 0.00 0.00 0.00 70 1006.0
20260830200506 28 167 4.8 11.3 0.00 0.00 0.00 69 1006.1
20260830200006 28 192 4.8 14.5 0.00 0.00 0.00 70 1006.2
20260830195506 28 167 4.8 12.9 0.00 0.00 0.00 68 1006.2
20260830195009 28 167 4.8 12.9 0.00 0.00 0.00 69 1006.1
20260830193007 28 164 3.2 9.7 0.00 0.00 0.00 70 1006.0
20260830192506 28 145 3.2 9.7 0.00 0.00 0.00 71 1006.0
20260830192006 28 169 3.2 9.7 0.00 0.00 0.00 70 1006.1
20260830191506 28 155 3.2 8.0 0.00 0.00 0.00 69 1006.1
20260830191005 29 155 1.6 4.8 0.00 0.00 0.00 67 1006.0
20260830190506 29 155 4.8 11.3 0.00 0.00 0.00 65 1006.0
20260830185506 30 172 4.8 11.3 0.00 0.00 0.00 61 1006.0
20260830185006 31 172 4.8 9.7 0.00 0.00 0.00 60 1005.8
20260830184506 31 160 3.2 8.0 0.00 0.00 0.00 61 1005.7
20260830184006 31 171 1.6 8.0 0.00 0.00 0.00 62 1005.7
20260830183506 31 158 3.2 8.0 0.00 0.00 0.00 60 1005.7
20260830183007 31 171 1.6 8.0 0.00 0.00 0.00 62 1005.7
20260830182506 31 171 1.6 8.0 0.00 0.00 0.00 62 1005.7
20260830182006 31 173 1.6 4.8 0.00 0.00 0.00 63 1005.8
20260830181506 31 179 1.6 4.8 0.00 0.00 0.00 62 1005.8
20260830181006 30 186 3.2 4.8 0.00 0.00 0.00 64 1005.8
20260830180506 30 186 1.6 4.8 0.00 0.00 0.00 66 1005.8
20260830180006 30 169 1.6 4.8 0.00 0.00 0.00 65 1005.7
20260830175007 28 167 0.0 4.8 0.00 0.00 0.00 68 1006.0
20260830174506 28 167 0.0 4.8 0.00 0.00 0.00 72 1006.2
20260830173506 27 167 1.6 4.8 0.00 0.00 0.00 77 1006.4
20260830173007 26 167 0.0 1.6 0.00 0.00 0.00 77 1006.5
20260830172506 26 167 1.6 4.8 0.00 0.00 0.00 77 1006.6
20260830172006 26 167 3.2 4.8 0.00 0.00 0.00 77 1006.8
20260830171506 26 168 3.2 8.0 0.00 0.00 0.00 77 1006.9
20260830171006 26 164 1.6 8.0 0.00 0.00 0.00 77 1007.0
20260830170505 26 166 4.8 9.7 0.00 0.00 0.00 76 1007.2
20260830170006 26 166 4.8 16.1 0.00 0.00 0.00 75 1007.4
20260830165506 26 165 3.2 9.7 0.00 0.00 0.00 75 1007.3
20260830165006 26 175 4.8 9.7 0.00 0.00 0.00 74 1007.4
20260830164506 27 162 3.2 11.3 0.00 0.00 0.00 73 1007.3
20260830164006 27 169 6.4 11.3 0.00 0.00 0.00 72 1007.3
20260830163006 27 159 3.2 9.7 0.00 0.00 0.00 72 1007.3
20260830162505 28 151 1.6 4.8 0.00 0.00 0.00 71 1007.2
20260830162006 28 143 1.6 4.8 0.00 0.00 0.00 70 1006.9
20260830161506 28 144 3.2 4.8 0.00 0.00 0.00 70 1006.8
20260830161006 28 141 1.6 4.8 0.00 0.00 0.00 69 1006.6
20260830160506 28 141 3.2 4.8 0.00 0.00 0.00 70 1006.5
20260830160006 28 140 1.6 4.8 0.00 0.00 0.00 71 1006.5
20260830155506 28 138 1.6 4.8 0.00 0.00 0.00 72 1006.4
20260830155006 27 136 0.0 4.8 0.00 0.00 0.00 72 1006.2
20260830154506 27 136 1.6 4.8 0.00 0.00 0.00 73 1006.2
20260830154006 27 136 0.0 3.2 0.00 0.00 0.00 74 1006.1
20260830153506 27 136 1.6 4.8 0.00 0.00 0.00 74 1006.1
20260830153006 26 128 0.0 3.2 0.00 0.00 0.00 75 1006.1
20260830152506 26 128 0.0 3.2 0.00 0.00 0.00 78 1006.1
20260830152006 26 128 1.6 4.8 0.00 0.00 0.00 78 1006.2
20260830151006 25 126 1.6 4.8 0.00 0.00 0.00 79 1006.0
20260830150506 25 126 0.0 3.2 0.00 0.00 0.00 81 1005.9
20260830150006 25 126 1.6 4.8 0.00 0.00 0.00 80 1005.9
20260830145506 25 119 0.0 1.6 0.00 0.00 0.00 83 1006.0
20260830145006 24 119 1.6 3.2 0.00 0.00 0.00 83 1006.0
20260830144505 24 119 1.6 3.2 0.00 0.00 0.00 84 1006.0
20260830144006 23 119 0.0 3.2 0.00 0.00 0.00 84 1006.0
20260830143506 23 119 1.6 3.2 0.00 0.00 0.00 84 1006.1
20260830143006 23 119 0.0 0.0 0.00 0.00 0.00 84 1006.0
20260830142506 23 119 0.0 0.0 0.00 0.00 0.00 85 1005.9
20260830142006 23 119 0.0 1.6 0.00 0.00 0.00 85 1006.1
20260830141505 23 119 1.6 4.8 0.00 0.00 0.00 86 1006.0
20260830141006 22 116 1.6 4.8 0.00 0.00 0.00 87 1006.0
20260830140506 22 111 1.6 3.2 0.00 0.00 0.00 87 1006.0
20260830140005 22 111 1.6 3.2 0.00 0.00 0.00 88 1006.1
20260830135506 22 111 0.0 3.2 0.00 0.00 0.00 89 1006.2
20260830135006 22 111 0.0 3.2 0.00 0.00 0.00 89 1006.2
20260830134506 22 107 0.0 3.2 0.00 0.00 0.00 90 1006.1
20260830134006 21 107 0.0 3.2 0.00 0.00 0.00 90 1006.1
20260830133506 21 105 1.6 4.8 0.00 0.00 0.00 90 1006.1
20260830132006 21 165 1.6 3.2 0.00 0.00 0.00 91 1006.1
20260830131505 21 165 1.6 8.0 0.00 0.00 0.00 91 1006.1
20260830130505 21 165 1.6 3.2 0.00 0.00 0.00 92 1006.2
20260830130005 21 165 1.6 4.8 0.00 0.00 0.00 92 1006.1
20260830125515 20 165 1.6 3.2 0.00 0.00 0.00 92 1006.2
20260830125006 20 165 0.0 3.2 0.00 0.00 0.00 92 1006.2
20260830124506 20 165 1.6 4.8 0.00 0.00 0.00 92 1006.2
20260830124006 20 165 1.6 3.2 0.00 0.03 0.00 92 1006.2
20260830123506 20 165 1.6 4.8 0.00 0.05 0.00 92 1006.3
20260830123006 20 165 1.6 4.8 0.00 0.05 0.00 92 1006.3
20260830122506 20 165 1.6 8.0 0.00 0.08 0.00 92 1006.1
20260830122006 20 165 1.6 4.8 0.00 0.10 0.00 92 1006.0
20260830121506 20 165 1.6 4.8 0.00 0.10 0.00 92 1005.8
20260830121006 20 165 0.0 4.8 0.00 0.13 0.00 92 1005.9
20260830120006 20 165 1.6 3.2 0.00 0.15 0.00 92 1005.8
20260830115506 20 165 1.6 3.2 0.00 0.15 0.00 92 1005.9
20260830114505 20 165 3.2 4.8 0.00 0.20 0.00 91 1005.9
20260830114006 20 165 3.2 8.0 0.00 0.23 0.00 91 1005.8
20260830112006 20 157 1.6 3.2 0.00 0.30 0.00 91 1005.9
20260830111506 20 157 0.0 1.6 0.00 0.33 0.00 91 1005.9
20260830111006 20 157 0.0 4.8 0.00 0.36 0.00 91 1006.0
20260830110506 20 157 1.6 3.2 0.00 0.41 0.00 91 1006.0
20260830110006 20 157 1.6 4.8 0.00 0.43 0.00 91 1005.9
20260830105506 20 157 0.0 3.2 0.00 0.46 0.00 91 1006.0
20260830105006 20 157 1.6 3.2 0.00 0.48 0.00 91 1006.0
20260830104505 20 157 3.2 4.8 0.00 0.51 0.00 91 1006.3
20260830103006 20 164 3.2 4.8 0.00 0.58 0.00 91 1006.1
20260830102506 20 164 3.2 4.8 0.00 0.61 0.00 91 1006.1
20260830102006 20 164 3.2 4.8 0.00 0.64 0.00 91 1006.1
20260830101506 20 164 3.2 9.7 0.00 0.66 0.00 91 1006.1
20260830101006 20 159 3.2 8.0 0.00 0.69 0.00 91 1006.2
20260830100006 20 162 3.2 11.3 0.00 0.76 0.00 91 1006.2
20260830095505 20 167 3.2 11.3 0.00 0.79 0.00 91 1006.2
20260830095006 20 166 3.2 11.3 0.00 0.81 0.00 91 1006.1
20260830094007 20 169 3.2 8.0 0.00 0.84 0.00 91 1006.1
20260830093506 20 163 3.2 4.8 0.00 0.86 0.00 91 1006.1
20260830093006 20 163 1.6 8.0 0.00 0.86 0.00 91 1006.1
20260830092505 21 161 1.6 4.8 0.00 0.86 0.00 91 1006.1
20260830092006 21 161 3.2 9.7 0.00 0.86 0.00 91 1006.3
20260830091506 21 157 1.6 4.8 0.00 0.89 0.00 91 1006.2
20260830090506 21 155 1.6 8.0 0.00 0.89 0.00 91 1006.1
20260830090005 21 153 1.6 4.8 0.00 0.89 0.00 91 1006.0
20260830085505 21 153 1.6 4.8 0.00 0.89 0.00 91 1006.1
20260830085006 21 153 1.6 4.8 0.00 0.89 0.00 91 1006.2
20260830084506 21 154 3.2 8.0 0.00 0.89 0.00 91 1006.2
20260830083506 21 165 3.2 4.8 0.00 0.89 0.00 91 1006.3
20260830082506 21 165 3.2 8.0 0.00 0.89 0.00 91 1006.5
20260830082006 21 155 1.6 4.8 0.00 0.89 0.00 91 1006.5
20260830081506 21 155 1.6 4.8 0.00 0.89 0.00 91 1006.6
20260830081006 21 155 1.6 4.8 0.00 0.89 0.00 91 1006.5
20260830080506 21 155 1.6 4.8 0.00 0.89 0.00 91 1006.4
20260830080005 21 155 1.6 4.8 0.00 0.89 0.00 91 1006.3
20260830075506 21 155 1.6 4.8 0.00 0.89 0.00 91 1006.4
20260830075006 20 154 1.6 3.2 0.00 0.89 0.00 91 1006.5
20260830074505 20 155 1.6 8.0 0.00 0.89 0.00 91 1006.5
20260830074006 20 170 3.2 8.0 0.00 0.89 0.00 91 1006.6
20260830073506 20 170 0.0 3.2 0.00 0.89 0.00 91 1006.5
20260830073006 20 170 1.6 4.8 0.00 0.89 0.00 91 1006.6
20260830072506 20 171 1.6 4.8 0.00 0.89 0.00 90 1006.5
20260830072006 20 171 1.6 4.8 0.00 0.89 0.00 90 1006.6
20260830071505 20 172 1.6 8.0 0.00 0.89 0.00 90 1006.6
20260830071006 21 172 1.6 8.0 0.00 0.89 0.00 90 1006.6
20260830065506 21 183 1.6 4.8 0.00 0.89 0.00 90 1006.7
20260830065007 21 184 3.2 4.8 0.00 0.89 0.00 90 1006.7
20260830064505 21 170 3.2 8.0 0.00 0.89 0.00 90 1006.7
20260830063505 21 165 1.6 4.8 0.00 0.89 0.00 90 1006.9
20260830063006 21 170 1.6 4.8 0.00 0.89 0.00 90 1007.0
20260830062506 21 170 1.6 8.0 0.00 0.89 0.00 90 1007.1
20260830062006 21 171 3.2 8.0 0.00 0.89 0.00 89 1007.1
20260830061006 21 170 3.2 8.0 0.00 0.89 0.00 89 1007.2
20260830055505 21 157 3.2 9.7 0.00 0.89 0.00 89 1007.3
20260830055006 21 145 3.2 8.0 0.00 0.89 0.00 88 1007.3
20260830054506 21 176 1.6 9.7 0.00 0.89 0.00 88 1007.3
20260830054006 21 163 3.2 8.0 0.00 0.89 0.00 88 1007.4
20260830053506 21 163 3.2 9.7 0.00 0.89 0.00 88 1007.4
20260830053006 21 163 3.2 9.7 0.00 0.89 0.00 88 1007.5
20260830052506 21 170 3.2 11.3 0.00 0.89 0.00 88 1007.5
20260830052006 21 170 3.2 4.8 0.00 0.89 0.00 88 1007.5
20260830051505 21 170 3.2 11.3 0.00 0.89 0.00 87 1007.6
20260830051005 21 170 1.6 4.8 0.00 0.89 0.00 87 1007.6
20260830050006 21 153 1.6 8.0 0.00 0.89 0.00 87 1007.7
20260830045505 21 160 0.0 8.0 0.00 0.89 0.89 87 1007.7
20260830045006 21 160 3.2 8.0 0.00 0.89 0.89 87 1007.7
20260830044506 21 163 3.2 4.8 0.00 0.89 0.89 87 1007.7
20260830044006 21 163 1.6 8.0 0.00 0.89 0.89 87 1007.7
20260830043006 21 159 1.6 8.0 0.00 0.89 0.89 86 1007.9
20260830042505 21 157 1.6 9.7 0.00 0.89 0.89 86 1008.0
20260830041506 21 162 1.6 3.2 0.00 0.89 0.89 86 1008.1
20260830041006 21 162 3.2 8.0 0.00 0.89 0.89 86 1008.1
20260830040505 21 161 3.2 11.3 0.00 0.89 0.89 86 1008.0
20260830040005 21 177 3.2 8.0 0.00 0.89 0.89 86 1008.0
20260830035506 21 165 3.2 8.0 0.00 0.89 0.89 85 1008.0
20260830034506 21 169 1.6 8.0 0.00 0.89 0.89 85 1008.1
20260830033505 21 157 3.2 11.3 0.00 0.89 0.89 85 1008.0
20260830033006 21 168 4.8 8.0 0.00 0.89 0.89 85 1008.0
20260830032505 21 158 3.2 8.0 0.00 0.89 0.89 84 1007.9
20260830032006 21 158 3.2 11.3 0.00 0.89 0.89 84 1007.8
20260830031506 21 173 3.2 11.3 0.00 0.89 0.89 84 1007.8
20260830031006 21 150 3.2 9.7 0.00 0.89 0.89 84 1007.8
20260830030506 22 149 1.6 4.8 0.00 0.89 0.89 84 1007.8
20260830030005 22 168 3.2 8.0 0.00 0.89 0.89 84 1007.9
20260830025505 22 158 3.2 8.0 0.00 0.89 0.89 83 1007.9
20260830025006 22 156 3.2 4.8 0.00 0.89 0.89 83 1008.0
20260830024506 22 156 1.6 9.7 0.00 0.89 0.89 83 1008.0
20260830024006 22 175 1.6 4.8 0.00 0.89 0.89 83 1008.0
20260830023506 22 148 3.2 8.0 0.00 0.89 0.89 83 1008.0
20260830023005 22 153 1.6 4.8 0.00 0.89 0.89 83 1008.0
20260830022505 22 153 1.6 4.8 0.00 0.89 0.89 82 1008.0
20260830021505 22 153 3.2 4.8 0.00 0.89 0.89 82 1007.9
20260830021006 22 153 3.2 9.7 0.00 0.89 0.89 82 1007.9
20260830020005 22 159 3.2 4.8 0.00 0.89 0.89 82 1007.9
20260830015506 22 159 3.2 8.0 0.00 0.89 0.89 82 1007.8
20260830014506 22 159 3.2 4.8 0.00 0.89 0.89 81 1007.7
20260830014006 22 158 3.2 4.8 0.00 0.89 0.89 81 1007.6
20260830013506 22 153 1.6 4.8 0.00 0.89 0.89 81 1007.5
20260830012506 22 162 3.2 4.8 0.00 0.89 0.89 80 1007.5
20260830012006 22 163 3.2 8.0 0.00 0.89 0.89 80 1007.4
20260830011005 22 175 1.6 4.8 0.00 0.89 0.89 80 1007.3
20260830010005 22 154 3.2 8.0 0.00 0.89 0.89 79 1007.3
20260830005005 22 153 3.2 11.3 0.00 0.89 0.89 79 1007.3
20260830004506 23 169 4.8 12.9 0.00 0.89 0.89 78 1007.2
20260830003505 23 163 4.8 14.5 0.00 0.89 0.89 78 1007.2